Lovelock, NV

11:51 PM PDT on September 24, 2016 (GMT -0700)
Derby

Weather History for KLOL - March, 2013

Change the Weather History Date:

Saturday, March 23, 2013

  Actual Average Record
Temperature  
Mean Temperature 29 °F -  
Max Temperature 50 °F 61 °F 77 °F (1960)
Min Temperature 10 °F 30 °F 10 °F (2013)
Degree Days  
Heating Degree Days 36    
Moisture  
Dew Point 6 °F    
Average Humidity 35    
Maximum Humidity 70    
Minimum Humidity 17    
Precipitation  
Precipitation 0.00 in - - ()
Sea Level Pressure  
Sea Level Pressure 30.23 in    
Wind  
Wind Speed 6 mph (NE)    
Max Wind Speed 14 mph    
Max Gust Speed -    
Visibility 10 miles    
Events      
Averages and records for this station are not official NWS values.
T = Trace of Precipitation, MM = Missing Value Source: NWS Daily Summary

Daily Weather History Graph

Daily Weather History Graph

Search for Another Location

Airport or City:

Trip Planner

Search our weather history database for the weather conditions in past years. The results will help you decide how hot, cold, wet, or windy it might be!

Date:

Astronomy

Mar. 23, 2013 Rise Set
Actual Time 6:52 AM PDT 7:09 PM PDT
Civil Twilight 6:25 AM PDT 7:36 PM PDT
Nautical Twilight 5:53 AM PDT 8:08 PM PDT
Astronomical Twilight 5:21 AM PDT 8:41 PM PDT
Moon 3:41 PM PDT (3/23) 4:31 AM PDT (3/23)
Length of Visible Light 13h 11m
Length of Day
12h 17m
Waxing Gibbous, 86% of the Moon is Illuminated
Mar 23
Waxing Gibbous
Mar 27
Full
Apr 2
Last Quarter
Apr 10
New
Apr 18
First Quarter

Hourly Weather History & Observations

Time (PDT) Temp. Windchill Dew Point Humidity Pressure Visibility Wind Dir Wind Speed Gust Speed Precip Events Conditions
12:53 AM 30.0 °F 19.5 °F 8.1 °F 40% 30.22 in 10.0 mi NNE 13.8 mph - N/A   Clear
1:53 AM 26.1 °F 17.6 °F 7.0 °F 44% 30.26 in 10.0 mi NE 8.1 mph - N/A   Clear
2:53 AM 21.0 °F - 6.1 °F 53% 30.27 in 10.0 mi Calm Calm - N/A   Clear
3:53 AM 18.0 °F 12.7 °F 3.9 °F 54% 30.27 in 10.0 mi ENE 3.5 mph - N/A   Clear
4:53 AM 21.0 °F 14.6 °F 6.1 °F 53% 30.27 in 10.0 mi ENE 4.6 mph - N/A   Clear
5:53 AM 21.0 °F 13.4 °F 6.1 °F 53% 30.28 in 10.0 mi NNE 5.8 mph - N/A   Clear
6:53 AM 10.9 °F - 3.0 °F 70% 30.33 in 10.0 mi Calm Calm - N/A   Clear
7:53 AM 19.9 °F - 7.0 °F 57% 30.34 in 10.0 mi Calm Calm - N/A   Clear
8:53 AM 30.9 °F 24.3 °F 10.9 °F 43% 30.32 in 10.0 mi NNE 6.9 mph - N/A   Clear
9:53 AM 35.1 °F 30.1 °F 10.9 °F 37% 30.30 in 10.0 mi NNE 5.8 mph - N/A   Clear
10:53 AM 37.9 °F 33.5 °F 9.0 °F 30% 30.29 in 10.0 mi NNE 5.8 mph - N/A   Clear
11:53 AM 39.0 °F 36.8 °F 9.0 °F 29% 30.26 in 10.0 mi Variable 3.5 mph - N/A   Clear
12:53 PM 42.1 °F 40.2 °F 8.1 °F 25% 30.23 in 10.0 mi NNW 3.5 mph - N/A   Clear
1:53 PM 44.1 °F 41.5 °F 8.1 °F 23% 30.20 in 10.0 mi Variable 4.6 mph - N/A   Clear
2:53 PM 46.0 °F 43.9 °F 7.0 °F 20% 30.17 in 10.0 mi Variable 4.6 mph - N/A   Clear
3:53 PM 48.0 °F - 6.1 °F 18% 30.16 in 10.0 mi NE 5.8 mph - N/A   Clear
4:53 PM 48.9 °F - 5.0 °F 17% 30.13 in 10.0 mi East 5.8 mph - N/A   Partly Cloudy
5:53 PM 48.0 °F - 7.0 °F 19% 30.13 in 10.0 mi East 4.6 mph - N/A   Mostly Cloudy
6:53 PM 46.9 °F - 5.0 °F 18% 30.15 in 10.0 mi NE 5.8 mph - N/A   Clear
7:53 PM 39.9 °F 35.8 °F 5.0 °F 23% 30.16 in 10.0 mi NNE 5.8 mph - N/A   Clear
8:53 PM 34.0 °F - 3.0 °F 27% 30.16 in 10.0 mi Calm Calm - N/A   Clear
9:53 PM 32.0 °F - 3.0 °F 29% 30.17 in 10.0 mi Calm Calm - N/A   Clear
10:53 PM 33.1 °F 24.9 °F 6.1 °F 32% 30.18 in 10.0 mi NNE 10.4 mph - N/A   Clear
11:53 PM 27.0 °F - 3.0 °F 36% 30.21 in 10.0 mi Calm Calm - N/A   Clear